Flag for United Kingdom Weather past 2 weeks in Stornoway, Scotland, United Kingdom

Now
39 °F

Scattered showers. Passing clouds.


Feels Like: 32 °F
Forecast: 39 / 49 °F
Wind: 10 mph from Northwest

Location: Stornoway

Current Time: Apr 1, 2015 at 3:58:57 PM

Latest Report: Apr 1, 2015 at 3:20 PM


Visibility: N/A

Pressure: 29.92 "Hg

Humidity: 87%

Dew point: 36 °F

Location of StornowayLocation

Historic Weather in Stornoway — Graph

°F

Stornoway temperature yesterday

Maximum temperature yesterday: 43 °F (at 1:50 PM)
Minimum temperature yesterday: 34 °F (at 5:20 AM)
Average temperature yesterday: 37 °F

Past Weeks' High & Low Weather Summary

 TemperatureHumidityPressure
High52 °F (Mar 18, 12:50 PM)100% (Mar 18, 7:20 AM)30.54 "Hg (Mar 18, 7:20 AM)
Low28 °F (Mar 18, 3:50 AM)62% (Mar 17, 1:20 PM)28.88 "Hg (Mar 30, 9:20 PM)
Average42 °F82%29.82 "Hg
* Reported Mar 17 1:20 PM — Apr 1 2:50 PM, Stornoway, Weather by CustomWeather, © 2015

Note: Actual official high and low records may vary slightly from our data, if they occured in-between our weather recording intervals... More about our weather records

Advertising

Stornoway weather history for previous 24 hours

 ConditionsComfort  
Time TempWeatherWind HumidityBarometerVisibility
2:50 PM
Wed, Apr 1
41 °FSprinkles. Scattered clouds.22 mph81%29.89 "HgN/A
2:20 PM43 °FScattered showers. Scattered clouds.21 mph76%29.89 "HgN/A
1:50 PM43 °FScattered showers. Passing clouds.18 mph81%29.89 "HgN/A
1:20 PM41 °FSprinkles. Scattered clouds.23 mph81%29.89 "HgN/A
12:50 PM45 °FScattered showers. Passing clouds.23 mph71%29.89 "HgN/A
12:20 PM43 °FPassing clouds.21 mph76%29.86 "HgN/A
11:50 AM43 °FPassing clouds.20 mph81%29.86 "HgN/A
11:20 AM45 °FScattered showers. Passing clouds.18 mph81%29.86 "HgN/A
10:50 AM43 °FScattered showers. Passing clouds.18 mph76%29.86 "HgN/A
10:20 AM41 °FScattered showers. Scattered clouds.20 mph76%29.83 "HgN/A
9:50 AM37 °FScattered showers. Scattered clouds.12 mph87%29.83 "HgN/A
9:20 AM39 °FScattered showers. Passing clouds.13 mph81%29.83 "HgN/A
8:50 AM37 °FScattered showers. Scattered clouds.17 mph81%29.83 "HgN/A
8:20 AM36 °FScattered showers. Scattered clouds.20 mph87%29.83 "HgN/A
7:50 AM37 °FScattered showers. Passing clouds.28 mph81%29.83 "HgN/A
7:20 AM37 °FSprinkles. Passing clouds.18 mph81%29.83 "HgN/A
6:50 AM36 °FScattered showers. Passing clouds.21 mph81%29.83 "HgN/A
6:20 AM36 °FScattered showers. Passing clouds.25 mph81%29.80 "HgN/A
5:20 AM36 °FChilly.15 mph87%29.83 "HgN/A
4:50 AM36 °FPassing clouds.17 mph87%29.83 "HgN/A
4:20 AM36 °FPassing clouds.21 mph81%29.80 "HgN/A
3:50 AM36 °FPassing clouds.26 mph81%29.80 "HgN/A
3:20 AM36 °FChilly.21 mph81%29.80 "HgN/A
2:50 AM34 °FPassing clouds.13 mph87%29.80 "HgN/A
2:20 AM34 °FLight rain. Passing clouds.21 mph87%29.80 "Hg2 mi
1:50 AM34 °FPassing clouds.12 mph87%29.80 "HgN/A
1:20 AM34 °FPassing clouds.7 mph87%29.80 "HgN/A
12:50 AM34 °FLight rain. Passing clouds.14 mph87%29.80 "Hg4 mi
12:20 AM34 °FLight snow. Passing clouds.12 mph87%29.77 "HgN/A
11:50 PM
Tue, Mar 31
34 °FLight rain. Passing clouds.12 mph87%29.77 "HgN/A
11:20 PM34 °FLight snow. Passing clouds.13 mph87%29.77 "Hg2 mi
10:50 PM36 °FLight rain. Passing clouds.16 mph81%29.71 "Hg5 mi
10:20 PM36 °FPassing clouds.12 mph87%29.71 "HgN/A
9:50 PM36 °FChilly.10 mph87%29.71 "HgN/A
9:20 PM36 °FPassing clouds.9 mph81%29.68 "HgN/A
8:50 PM37 °FSprinkles. Scattered clouds.14 mph81%29.65 "HgN/A
8:20 PM39 °FScattered showers. Scattered clouds.16 mph81%29.65 "HgN/A
7:50 PM39 °FScattered showers. Passing clouds.21 mph81%29.62 "HgN/A
7:20 PM39 °FScattered showers. Passing clouds.20 mph81%29.59 "HgN/A
6:50 PM39 °FScattered showers. Passing clouds.22 mph87%29.56 "HgN/A
6:20 PM39 °FScattered showers. Broken clouds.12 mph81%29.53 "HgN/A
5:50 PM37 °FScattered showers. Scattered clouds.22 mph87%29.50 "HgN/A
5:20 PM37 °FScattered showers. Scattered clouds.24 mph87%29.47 "HgN/A
4:50 PM37 °FSprinkles. Broken clouds.31 mph87%29.45 "HgN/A
4:20 PM39 °FSprinkles. Broken clouds.36 mph81%29.42 "Hg3 mi
3:50 PM39 °FSprinkles. Scattered clouds.31 mph81%29.42 "HgN/A
3:20 PM36 °FThunderstorms. Partly sunny.32 mph87%29.42 "Hg4 mi
Weather by CustomWeather, © 2015

See weather overviewHow to use our weather pages